Preview of NWS' New Version of Forecast
This preview is not operational and should not be used for support decisions.

Regional Weather Roundup (RWR)

Issued by National Weather Service (NWS)

                            
000
ASUS44 KJAN 202110
RWRMS 

MISSISSIPPI HOURLY WEATHER ROUNDUP
NATIONAL WEATHER SERVICE JACKSON MS
300 PM CST WED FEB 20 2019

NOTE: "FAIR: INDICATES FEW OR NO CLOUDS BELOW 12,000 FEET WITH NO
SIGNIFICANT WEATHER AND/OR OBSTRUCTIONS TO VISIBILITY.

MSZ001>002-007>008-010>013-018>021-025>028-034>036-202200-
NORTHWEST MISSISSIPPI
  
CITY           SKY/WX    TMP DP  RH WIND       PRES   REMARKS
BATESVILLE     CLOUDY    50  46  87 W9        29.92R                  
CLARKSDALE     CLOUDY    52  48  87 W9        29.95R                  
CLEVELAND      CLOUDY    50  45  80 W7        29.95R                  
GREENWOOD      CLOUDY    51  45  79 VRB6      29.94R                  
GREENVILLE     CLOUDY    52  44  74 W6        29.94S                  
OLIVE BRANCH   CLOUDY    48  48 100 W7G16     29.90S                  
OXFORD         CLOUDY    46  46 100 W8        29.93R                  
TUNICA           N/A     48  43  81 W8        29.94S                  
WINONA         CLOUDY    51  48  90 W5        29.92R                  
$$

MSZ003>006-009-014>017-022>024-029>033-037>039-202200-
NORTHEAST MISSISSIPPI
  
CITY           SKY/WX    TMP DP  RH WIND       PRES   REMARKS
ABERDEEN       CLOUDY    59  59 100 S9        29.89R FOG              
COLUMBUS AFB   CLOUDY    60  58  94 SW8       29.88R                  
CORINTH        DRIZZLE   54  52  94 W14G23    29.88R                  
GOLDN TRIANGLE CLOUDY    60  59  96 S5        29.90R                  
STARKVILLE     CLOUDY    59  59 100 W8        29.91R                  
TUPELO         CLOUDY    56  54  93 W7G20     29.89R                  
$$

MSZ040-058-202200-
CENTRAL MISSISSIPPI
  
CITY           SKY/WX    TMP DP  RH WIND       PRES   REMARKS
JACKSON INTL   CLOUDY    55  49  80 NW5       29.93S                  
JACKSON HAWKNS CLOUDY    55  50  83 NW7       29.93S                  
MADISON        CLOUDY    52  52 100 CALM      29.93R                  
MERIDIAN KEY   CLOUDY    66  61  84 W5        29.90R                  
MERIDIAN NAS   CLOUDY    65  63  93 CALM      29.90R                  
RAYMOND        CLOUDY    54  52  94 CALM      29.94R                  
VICKSBURG VKS  CLOUDY    54  48  82 VRB5      29.95S                  
$$

MSZ059>079-202200-
SOUTH MISSISSIPPI
  
CITY           SKY/WX    TMP DP  RH WIND       PRES   REMARKS
HATTIESBURG    TSTM      65  63  93 NW8       29.90R FOG              
LAUREL         CLOUDY    64  64  97 NW3       29.90S                  
MCCOMB         CLOUDY    58  52  80 NW10      29.92R                  
NATCHEZ        CLOUDY    53  47  79 N3        29.94F                  
PINE BELT      CLOUDY    64  63  94 VRB3      29.92R                  
$$

MSZ080>082-202200-
COASTAL MISSISSIPPI
  
CITY           SKY/WX    TMP DP  RH WIND       PRES   REMARKS
BILOXI         FOG       67  67 100 S10       29.89F VSB 1/2          
PASCAGOULA     CLOUDY    75  70  84 S10G21    29.91R                  
GULFPORT       FOG       68  67  96 S8        29.89S VSB 1/4          
$$

LAZ007>009-015>016-023>026-202200-
NORTHEAST LOUISIANA
  
CITY           SKY/WX    TMP DP  RH WIND       PRES   REMARKS
BASTROP        MOCLDY    56  44  64 NW7       29.96R                  
TALLULAH/VBURG CLOUDY    54  46  74 VRB5      29.95S                  
VIDALIA        CLOUDY    54  47  76 CALM      29.95R                  
$$